TimeAST,TemperatureF,Dew PointF,Humidity,Sea Level PressureIn,VisibilityMPH,Wind Direction,Wind SpeedMPH,Gust SpeedMPH,PrecipitationIn,Events,Conditions,WindDirDegrees,DateUTC
12:00 AM,26.6,23.0,86,30.28,15.0,NE,12.7,-,N/A,,Partly Cloudy,40,2013-03-08 04:00:00
1:00 AM,24.8,23.0,93,30.27,15.0,NE,15.0,-,N/A,,Partly Cloudy,40,2013-03-08 05:00:00
2:00 AM,26,24,86,30.26,15,NE,15.0,,,,Clear,40,2013-03-08 06:00:00
2:00 AM,24.8,23.0,93,30.26,15.0,NE,15.0,-,N/A,,Partly Cloudy,40,2013-03-08 06:00:00
3:00 AM,24.8,23.0,93,30.24,15.0,NE,16.1,21.9,N/A,,Partly Cloudy,40,2013-03-08 07:00:00
4:00 AM,24.8,23.0,93,30.23,15.0,NE,16.1,23.0,N/A,,Scattered Clouds,40,2013-03-08 08:00:00
5:00 AM,24.8,23.0,93,30.23,15.0,NNE,13.8,-,N/A,,Mostly Cloudy,30,2013-03-08 09:00:00
6:00 AM,24.8,23.0,93,30.23,15.0,NNE,15.0,-,N/A,,Mostly Cloudy,30,2013-03-08 10:00:00
7:00 AM,24.8,23.0,93,30.24,15.0,NNE,13.8,-,N/A,,Mostly Cloudy,30,2013-03-08 11:00:00
8:00 AM,27,24,85,30.25,15,NE,16.1,,,,Mostly Cloudy,40,2013-03-08 12:00:00
8:00 AM,26.6,24.8,93,30.24,15.0,NE,17.3,-,N/A,,Mostly Cloudy,40,2013-03-08 12:00:00
9:00 AM,28.4,24.8,86,30.24,15.0,NNE,17.3,-,N/A,,Mostly Cloudy,30,2013-03-08 13:00:00
10:00 AM,32.0,26.6,80,30.24,15.0,NE,16.1,23.0,N/A,,Mostly Cloudy,40,2013-03-08 14:00:00
11:00 AM,33.8,26.6,75,30.25,15.0,NE,19.6,-,N/A,,Mostly Cloudy,50,2013-03-08 15:00:00
12:00 PM,33.8,28.4,81,30.26,15.0,NE,19.6,25.3,N/A,,Mostly Cloudy,40,2013-03-08 16:00:00
1:00 PM,33.8,28.4,81,30.25,15.0,NNE,20.7,-,N/A,,Mostly Cloudy,30,2013-03-08 17:00:00
2:00 PM,33,26,68,30.24,15,NE,20.7,,,,Scattered Clouds,50,2013-03-08 18:00:00
2:00 PM,33.8,26.6,75,30.24,15.0,NE,20.7,27.6,N/A,,Mostly Cloudy,50,2013-03-08 18:00:00
3:00 PM,33.8,24.8,70,30.25,15.0,ENE,23.0,32.2,N/A,,Mostly Cloudy,60,2013-03-08 19:00:00
4:00 PM,32.0,24.8,75,30.25,15.0,NE,20.7,28.8,N/A,,Mostly Cloudy,40,2013-03-08 20:00:00
5:00 PM,30.2,26.6,86,30.26,15.0,NE,17.3,25.3,N/A,,Mostly Cloudy,40,2013-03-08 21:00:00
6:00 PM,28.4,24.8,86,30.27,15.0,NNE,18.4,26.5,N/A,,Mostly Cloudy,30,2013-03-08 22:00:00
7:00 PM,28.4,24.8,86,30.27,15.0,NE,16.1,25.3,N/A,,Overcast,40,2013-03-08 23:00:00
8:00 PM,28,24,77,30.28,15,NE,20.7,,,,Overcast,50,2013-03-09 00:00:00
8:00 PM,28.4,23.0,80,30.27,15.0,NE,18.4,29.9,N/A,,Overcast,50,2013-03-09 00:00:00
9:00 PM,28.4,23.0,80,30.28,15.0,NE,19.6,27.6,N/A,,Overcast,40,2013-03-09 01:00:00
10:00 PM,26.6,23.0,86,30.28,15.0,NE,16.1,23.0,N/A,,Overcast,40,2013-03-09 02:00:00
11:00 PM,26.6,23.0,86,30.28,15.0,NE,16.1,24.2,N/A,,Overcast,50,2013-03-09 03:00:00